軌道要素
Epoch 2013 Jan. 28.0 TT = JDT 2456320.5
T 2013 Jan. 8.00950 TT MPC
q 1.8191569 (2000.0) P Q
z +0.0000240 Peri. 192.54803 +0.03599963 +0.55369967
Node 85.11501 -0.82949665 +0.48083833
e 0.9999563 Incl. 56.61280 -0.55735028 -0.67986115
From 4569 observations 2011 Mar. 17-2014 Aug. 7, mean residual 0".6.
Nongravitational parameters A1 = +5.98, A2 = -2.7194.
|